Location: Ottawa
(45.4167°N, 75.7000°W)
Time: 00:08:13
(UTC-04:00)

Vanguard 1 - All Passes

Search period start: 18 June 2018 00:00
Search period end: 28 June 2018 00:00
Orbit: 650 x 3833 km, 34.3° (Epoch: 17 June)

Date Brightness Start Highest point End Pass type
(mag) Time Alt. Az. Time Alt. Az. Time Alt. Az.
18 Jun - 06:59:06 10° SSW 07:09:24 35° SE 07:25:44 10° E daylight
18 Jun - 09:17:15 10° WSW 09:31:33 57° SSE 09:53:32 10° E daylight
18 Jun - 11:38:21 10° W 11:56:25 56° SSW 12:18:50 10° ESE daylight
18 Jun - 14:02:17 10° W 14:20:59 37° SW 14:39:37 10° SSE daylight
18 Jun - 16:35:36 10° WSW 16:42:46 12° SW 16:49:36 10° SW daylight
19 Jun - 05:06:07 10° SSE 05:10:38 13° SE 05:16:08 10° ESE daylight
19 Jun - 07:19:06 10° SW 07:29:51 41° SSE 07:47:28 10° E daylight
19 Jun - 09:37:58 10° WSW 09:52:37 59° S 10:14:52 10° ESE daylight
19 Jun - 11:59:26 10° W 12:17:32 52° SSW 12:39:30 10° SE daylight
19 Jun - 14:24:08 10° W 14:41:35 31° SW 14:58:54 10° SSE daylight
20 Jun - 05:24:01 10° S 05:30:36 19° SE 05:39:43 10° E daylight
20 Jun - 07:39:21 10° SW 07:50:28 47° SSE 08:09:04 10° E daylight
20 Jun - 09:58:45 10° WSW 10:13:43 59° S 10:36:05 10° ESE daylight
20 Jun - 12:20:36 10° W 12:38:34 47° SSW 12:59:55 10° SE daylight
20 Jun - 14:46:29 10° W 15:02:05 24° SW 15:17:33 10° S daylight
21 Jun - 05:43:06 10° S 05:50:42 25° SE 06:02:11 10° E daylight
21 Jun - 07:59:46 10° SW 08:11:13 51° SSE 08:30:35 10° E daylight
21 Jun - 10:19:37 10° W 10:34:51 57° S 10:57:12 10° ESE daylight
21 Jun - 12:41:53 10° W 12:59:30 42° SSW 13:20:02 10° SSE daylight
21 Jun - 15:09:44 10° W 15:22:29 18° SW 15:35:09 10° SSW daylight
22 Jun - 06:02:44 10° SSW 06:10:57 31° SE 06:24:10 10° E daylight
22 Jun - 08:20:19 10° WSW 08:32:05 54° SSE 08:52:02 10° E daylight
22 Jun - 10:40:33 10° W 10:55:59 54° SSW 11:18:07 10° ESE daylight
22 Jun - 13:03:22 10° W 13:20:21 36° SSW 13:39:46 10° SSE daylight
22 Jun - 15:35:18 10° WSW 15:42:48 12° SW 15:50:18 10° SSW daylight
23 Jun - 06:22:42 10° SSW 06:31:21 37° SSE 06:45:55 10° E daylight
23 Jun - 08:40:58 10° WSW 08:53:03 56° S 09:13:25 10° ESE daylight
23 Jun - 11:01:33 10° W 11:17:04 50° SSW 11:38:50 10° SE daylight
23 Jun - 13:25:10 10° W 13:41:06 30° SW 13:58:59 10° SSE daylight
24 Jun - 04:28:24 10° SSE 04:32:47 15° SE 04:38:25 10° ESE visible
24 Jun - 06:42:55 10° SW 06:51:54 43° SSE 07:07:31 10° E daylight
24 Jun - 09:01:42 10° WSW 09:14:05 56° S 09:34:41 10° ESE daylight
24 Jun - 11:22:39 10° W 11:38:08 45° SSW 11:59:16 10° SE daylight
24 Jun - 13:47:28 10° W 14:01:45 24° SW 14:17:30 10° S daylight
25 Jun - 04:47:11 10° S 04:52:53 20° SE 05:01:05 10° E daylight
25 Jun - 07:03:18 10° SW 07:12:35 47° SSE 07:29:01 10° E daylight
25 Jun - 09:22:30 10° WSW 09:35:08 54° S 09:55:49 10° ESE daylight
25 Jun - 11:43:52 10° W 11:59:07 40° SSW 12:19:22 10° SSE daylight
25 Jun - 14:10:43 10° W 14:22:20 18° SW 14:34:52 10° SSW daylight
26 Jun - 05:06:43 10° SSW 05:13:07 26° SE 05:23:06 10° E daylight
26 Jun - 07:23:49 10° WSW 07:33:23 50° SSE 07:50:26 10° E daylight
26 Jun - 09:43:23 10° W 09:56:13 51° S 10:16:46 10° SE daylight
26 Jun - 12:05:19 10° W 12:20:03 34° SSW 12:39:02 10° SSE daylight
26 Jun - 14:36:42 10° WSW 14:42:53 12° SW 14:49:20 10° SSW daylight
27 Jun - 05:26:38 10° SSW 05:33:30 32° SSE 05:44:48 10° E daylight
27 Jun - 07:44:27 10° WSW 07:54:16 52° S 08:11:48 10° ESE daylight
27 Jun - 10:04:20 10° W 10:17:16 47° SSW 10:37:29 10° SE daylight
27 Jun - 12:27:05 10° W 12:40:55 28° SW 12:58:09 10° SSE daylight
